SL-8 DEB *

Satellite information

Favourite Embed

Satellite Type and Status

DEBRISIN ORBIT

Key statistics

Satellite SL-8 DEB * at a glance.

Uptime

18120

Days in orbit

Revolutions

≈ 14.7

Per day

Orbit

LEO

Low Earth Orbit

Inclination

74.1

Latest

Satellite identification and parameters

Extended collection of information and parameters for SL-8 DEB *.

Object identification

Identified? True

Debris? True

Object name: SL-8 DEB *

International designator: 1975-112D

Object number (NORAD): 14801

Object ID (CCSDS): 14801

Country: COMMONWEALTH OF INDEPENDENT STATES (CIS)

Current information (Y/N): Y

RCS size: SMALL

Orbital parameters

Period: 98.277 minutes

Inclination: 74.0583 deg

SMA: 7054.418 km

Apoapsis: 680.089 km

Periapsis: 672.476 km

RAAN: 56.2694 deg

Eccentricy: 0.0005396

Argument of periapsis: 1.9233 deg

Mean anomaly: 63.7064 deg

Mean motion: 14.65247594 rev/day

Mean motion (dot): 0.00001715 rev/day2

B* drag term: 0.0003238 1/REarth

Two-line elements (TLE)

Creation date: July 6, 2025, 6:05 p.m.

Reference frame: TEME

Reference center: EARTH

Epoch: July 6, 2025, 11:11 a.m. UTC

TLE line 0: 0 SL-8 DEB *

TLE line 1: 1 14801U 75112D 25187.46643593 .00001715 00000-0 32380-3 0 9996

TLE line 2: 2 14801 74.0583 56.2694 0005396 1.9233 63.7064 14.65247594437621

Live tracking on map

Real-time ground track for satellite SL-8 DEB *.

In-orbit conjunctions

A list of the most updated potential collisions computed for object SL-8 DEB *.

Target Orbit TCA Probability of collision Miss distance Type
CZ-2D R/B SSO 2024-08-07 09:29:09 0.0001644103 529.0 (m) ROCKET BODY

Associated space launch

Military communications satellite

SL-8 DEB * was lifted into orbit during the mission ‘Kosmos-3M | Strela-2M 11’, on board a Kosmos-3M space rocket.

The launch took place on Nov. 28, 1975, 12:10 a.m. from 132/1 (132L).

For more information about the launch, click the button.

Launch to space Kosmos-3M | Strela-2M 11
Kosmos-3M | Strela-2M 11

Agency: N/A

Status: Launch Successful

Launch date: Nov. 28, 1975, 12:10 a.m. UTC

Rocket: Kosmos-3M

Launch pad: 132/1 (132L)

Location: Plesetsk Cosmodrome, Russian Federation

...

Latest news about this satellite

There are no fresh news available about this satellite. Check back as we update our databases every day.


Newsletter sign-up

Weekly statistics, charts and insights to help you stay on top of the space industry.